This is the latest recevied weather packets stored in our database for station/object OE6ACM-10. If no packets are shown the sender has not sent any weather packets the latest 10 day(s).
| Time | Temp. | Humidity | Pressure | Rain* | Wind** | Luminosity | Snow |
|---|---|---|---|---|---|---|---|
| 1788583460 | 22.22° C | 100% | 927.8 hPa | - | - | - | - |
| 1788583160 | 22.22° C | 100% | 927.6 hPa | - | - | - | - |
| 1788582860 | 22.22° C | 100% | 927.6 hPa | - | - | - | - |
| 1788582560 | 22.22° C | 100% | 927.5 hPa | - | - | - | - |
| 1788582260 | 22.22° C | 100% | 927.5 hPa | - | - | - | - |
| 1788581960 | 22.78° C | 100% | 927.4 hPa | - | - | - | - |
| 1788581660 | 22.78° C | 100% | 927.3 hPa | - | - | - | - |
| 1788581360 | 22.78° C | 100% | 927.4 hPa | - | - | - | - |
| 1788581060 | 22.22° C | 100% | 927.4 hPa | - | - | - | - |
| 1788580760 | 22.22° C | 100% | 927.4 hPa | - | - | - | - |
| 1788580460 | 22.22° C | 100% | 927.5 hPa | - | - | - | - |
| 1788580160 | 21.67° C | 100% | 927.7 hPa | - | - | - | - |
| 1788579860 | 21.67° C | 100% | 927.7 hPa | - | - | - | - |
| 1788579560 | 21.11° C | 100% | 927.8 hPa | - | - | - | - |
| 1788579260 | 20.56° C | 100% | 927.9 hPa | - | - | - | - |
| 1788578960 | 20° C | 100% | 928 hPa | - | - | - | - |
| 1788578660 | 19.44° C | 100% | 927.9 hPa | - | - | - | - |
| 1788578360 | 18.89° C | 100% | 927.8 hPa | - | - | - | - |
| 1788578060 | 18.33° C | 100% | 927.8 hPa | - | - | - | - |
| 1788577760 | 18.33° C | 100% | 927.7 hPa | - | - | - | - |
| 1788577460 | 17.78° C | 100% | 927.4 hPa | - | - | - | - |
| 1788577160 | 17.78° C | 100% | 927.3 hPa | - | - | - | - |
| 1788576860 | 17.78° C | 100% | 927.2 hPa | - | - | - | - |
| 1788576560 | 17.78° C | 100% | 927.1 hPa | - | - | - | - |
| 1788576260 | 17.78° C | 100% | 927.2 hPa | - | - | - | - |
* Rain since midnight (hover to see other rain measurements)
** Current wind speed in m/s (hover to see current wind gust speed)